Location: ???????
(52.3000°N, 54.4667°E)
Time: 16:13:28
(UTC+00:00)

CZ-4 R/B - Pass Details

Date: 24 January 2020
Orbit: 534 x 597 km, 97.7° (Epoch: 18 February)

Event Time Altitude Azimuth Distance (km) Brightness Sun altitude
Rises 14:14:34 0° 156° (SSE) 2,765 4.8 -12.2°
Reaches altitude 10° 14:16:41 10° 153° (SSE) 1,882 3.9 -12.5°
Maximum altitude 14:20:44 65° 72° (ENE) 647 1.4 -13.1°
Drops below altitude 10° 14:24:53 10° 351° (N) 1,930 4.0 -13.7°
Sets 14:27:05 0° 349° (NNW) 2,843 4.9 -14.1°
